Estación de Contra Coronel

Ultimos registro cada 15 minutos 29
Estación Fecha / Hora Temperatura Humedad Lluvia Velocidad Dirección Radiación Presion
29 Contra Coronel 04-09-2026 07:00 4,2 98,9 0 0 341 0,6 1023,3
28 Contra Coronel 04-09-2026 06:45 4,2 98,9 0 0 341 0,6 1023,2
27 Contra Coronel 04-09-2026 06:30 4,3 99,1 0 0 341 0,6 1023,3
26 Contra Coronel 04-09-2026 06:15 4,2 99,1 0 0 341 0,6 1023,3
25 Contra Coronel 04-09-2026 06:00 4,2 99,2 0 0 341 0,6 1023,2
24 Contra Coronel 04-09-2026 05:45 4,2 99,2 0 0 341 0,6 1023,1
23 Contra Coronel 04-09-2026 05:30 4,2 99,1 0 0 341 0,6 1023,1
22 Contra Coronel 04-09-2026 05:15 4 99,3 0 0 341 0,6 1023,2
21 Contra Coronel 04-09-2026 05:00 3,9 99,3 0 0 341 0,6 1023,3
20 Contra Coronel 04-09-2026 04:45 3,7 99,2 0 0 341 0,6 1023,2
19 Contra Coronel 04-09-2026 04:30 3,7 99 0 0 341 0,6 1023,2
18 Contra Coronel 04-09-2026 04:15 3,9 99 0 0 341 0,6 1023,2
17 Contra Coronel 04-09-2026 04:00 4 99,1 0 0 341 0,6 1023
16 Contra Coronel 04-09-2026 03:45 4 99 0 0 341 0,6 1023,1
15 Contra Coronel 04-09-2026 03:30 4,2 98,7 0 0 341 0,6 1023,2
14 Contra Coronel 04-09-2026 03:15 4,7 98,9 0 0 341 0,6 1023,5
13 Contra Coronel 04-09-2026 03:00 4,6 99 0 0 341 0,6 1023,8
12 Contra Coronel 04-09-2026 02:45 4,5 99,1 0 0 341 0,6 1023,8
11 Contra Coronel 04-09-2026 02:30 4,4 99,1 0 0 341 0,6 1023,8
10 Contra Coronel 04-09-2026 02:15 4,3 99,1 0 0 341 0,6 1023,8
9 Contra Coronel 04-09-2026 02:00 4 99,1 0 0 341 0,6 1023,8
8 Contra Coronel 04-09-2026 01:45 4,2 99 0 0 341 0,6 1023,8
7 Contra Coronel 04-09-2026 01:30 4,3 99 0 0 271 0,6 1023,8
6 Contra Coronel 04-09-2026 01:15 4,2 99 0 0 271 0,6 1023,9
5 Contra Coronel 04-09-2026 01:00 4,1 98,6 0 0 271 0,6 1024
4 Contra Coronel 04-09-2026 00:45 3,7 98,4 0 0 271 0,6 1024,1
3 Contra Coronel 04-09-2026 00:30 3,8 98 0 0 271 0,6 1024,1
2 Contra Coronel 04-09-2026 00:15 4,3 97,6 0 0 271 0,6 1024,2
1 Contra Coronel 04-09-2026 00:00 5,1 97,3 0 0 271 0,6 1024,2